Location: *
(50.0613°S, 176.2036°W)
Time: 11:58:50
(UTC+00:00)

Daily predictions for brighter satellites

Satellite Brightness Start Highest point End
(mag) Time Altitude Azimuth Time Altitude Azimuth Time Altitude Azimuth
Cosmos 2242 Rocket 4.3 12:00:45 10° SSW 12:05:05 42° W 12:06:37 32° NW
MSX 4.4 12:02:07 17° NE 12:06:32 54° ESE 12:12:11 10° S
Cosmos 1400 Rocket 3.0 12:02:37 10° S 12:06:45 69° ESE 12:08:17 36° NNE
GP-B 3.2 12:03:37 10° S 12:08:07 66° W 12:09:46 37° NNW
Cosmos 1408 3.7 12:12:09 10° S 12:15:13 33° ESE 12:16:33 23° ENE
Meteor 2-5 Rocket 3.7 12:10:54 10° SSW 12:16:47 87° W 12:19:55 28° N
SAR-Lupe-4 3.5 12:16:32 43° NNE 12:17:38 83° ESE 12:21:19 10° SSW
Cosmos 1953 4.5 12:22:03 12° NE 12:24:18 19° E 12:27:08 10° SE
SL-24 DEB 4.3 12:23:18 10° S 12:28:05 73° W 12:30:08 33° NNW
Cosmos 2322 Rocket 4.4 12:25:45 10° SSW 12:30:23 25° SE 12:34:59 10° E
Cosmos 1867 3.8 12:25:39 10° SW 12:31:05 72° SE 12:36:29 10° NE
Cosmos 1315 Rocket 4.4 12:28:31 10° S 12:32:09 31° ESE 12:35:26 12° NE
Cosmos 1697 Rocket 3.1 12:26:56 10° SW 12:32:22 46° WNW 12:34:48 29° NNW
SAR-Lupe-1 4.1 12:31:33 43° N 12:32:35 70° WNW 12:36:18 10° SSW
Cosmos 1378 Rocket 3.6 12:31:56 10° SSW 12:36:18 65° W 12:38:03 35° NNW
Cosmos 1908 Rocket 4.1 12:35:50 28° NNE 12:38:00 54° E 12:42:26 10° SSE
Genesis I 4.0 12:34:55 10° SSW 12:38:34 49° SE 12:42:11 10° ENE
Cosmos 2208 Rocket 4.3 12:34:00 10° SSW 12:39:15 54° WNW 12:41:48 29° N
NOSS 3-1 (A) 3.9 12:32:23 10° SW 12:39:19 65° SE 12:44:53 10° ENE
NOSS 3-1 (C) 3.3 12:34:09 10° SW 12:40:54 79° NW 12:46:03 12° NE
Cosmos 1703 3.1 12:37:05 10° SSW 12:41:00 83° W 12:42:27 37° N
Cosmos 1733 Rocket 3.5 12:39:19 30° NW 12:41:11 52° WSW 12:45:32 10° S
ADEOS II 2.3 12:39:42 18° NNE 12:43:38 74° ESE 12:48:57 10° SSW
Cosmos 2221 Rocket 3.8 12:39:34 10° SSW 12:44:08 60° W 12:46:05 32° NNW
Cosmos 1633 3.3 12:41:18 10° S 12:44:14 38° ESE 12:45:38 23° NE
Cosmos 2098 Rocket 2.8 12:43:49 36° NE 12:44:32 45° E 12:47:32 10° SSE
USA 215 4.0 12:42:47 25° NNW 12:45:09 31° NW 12:50:57 10° WSW
Cosmos 1908 3.9 12:43:57 31° WNW 12:45:14 43° WSW 12:48:55 10° S
Meteor 1-22 Rocket 4.3 12:43:17 27° NNW 12:46:07 63° WSW 12:51:28 10° S
Cosmos 1470 4.4 12:46:51 19° WNW 12:48:29 24° WSW 12:51:47 10° SSW
Cosmos 1503 Rocket 4.5 12:47:51 25° N 12:50:40 51° ENE 12:55:45 10° SSE
SL-16 R/B 3.4 12:46:54 10° SSW 12:52:23 43° SE 12:57:49 10° ENE
Cosmos 1900 4.4 12:48:53 10° SW 12:53:40 54° WNW 12:56:20 25° N
Resurs 1-4 Rocket 2.2 12:51:34 26° N 12:54:28 60° WNW 12:59:47 10° SSW
COSMOS 2406 3.4 12:53:14 26° N 12:56:33 67° ENE 13:02:20 10° SSE
Lacrosse 5 rocket 1.5 12:53:38 10° SW 12:57:15 62° SSE 13:00:57 10° ENE
ATLAS CENTAUR R/B 2.2 12:53:06 10° SW 12:57:34 57° SE 13:01:56 10° NE
IDEFIX/ARIANE 42P 2.8 12:56:11 26° N 12:59:02 57° W 13:04:19 10° SSW
Cosmos 1980 Rocket 2.4 12:55:40 10° SW 13:01:14 54° WNW 13:04:48 22° N
Cosmos 2369 3.7 12:55:40 10° SW 13:01:18 63° WNW 13:05:23 19° N
Cosmos 1892 3.5 12:58:28 10° S 13:02:03 46° ESE 13:04:43 16° NE
CZ-2D R/B 2.5 13:01:05 25° NNW 13:04:12 54° W 13:09:40 10° SSW
ALOS 3.2 13:02:04 10° NE 13:06:32 47° ESE 13:11:05 10° S
Cosmos 773 Rocket 4.0 13:06:55 10° SSW 13:12:16 68° WNW 13:16:19 17° N
BREEZE-M DEB (TANK) 2.5 13:07:15 10° W 13:12:47 84° N 13:15:18 10° E
Cosmos 1825 2.9 13:11:44 10° S 13:15:17 48° ESE 13:18:15 14° NNE
Cosmos 1300 Rocket 4.2 13:12:28 19° NNE 13:15:32 52° E 13:19:57 10° SSE
ALOS 2 4.0 13:14:11 10° S 13:18:03 29° WSW 13:20:42 16° WNW
Meteor 1-4 Rocket 4.4 13:15:56 10° S 13:18:44 26° ESE 13:21:30 10° NE
Cosmos 1833 Rocket 3.9 13:15:24 12° WNW 13:20:09 35° SW 13:25:21 10° SSE
ATLAS 3B R/B 2.5 13:15:58 10° SW 13:22:12 60° NW 13:28:22 10° NNE
CSL-04 DEB 4.5 13:19:28 19° NNE 13:22:31 80° WNW 13:26:53 10° SSW
Cosmos 1340 3.0 13:21:18 27° NW 13:22:52 47° WSW 13:26:25 10° S
Cosmos 1300 3.0 13:21:53 27° NW 13:23:36 50° WSW 13:27:17 10° S
Cosmos 1025 Rocket 3.1 13:20:42 10° SSW 13:25:09 66° W 13:28:00 21° N
FENGYUN 3A 3.6 13:20:37 14° NNE 13:25:17 80° WNW 13:30:47 10° SSW
USA 308 1.3 13:25:27 53° NW 13:25:53 78° NNE 13:28:35 10° ESE
Cosmos 1455 3.2 13:26:21 15° NNE 13:29:04 40° E 13:32:34 10° SSE
Cosmos 1934 Rocket 4.5 13:23:16 10° SSW 13:29:24 47° W 13:33:42 19° NNW
SJ 16-02 3.3 13:28:06 10° WNW 13:31:25 21° SW 13:34:51 10° S
Meteor 2-10 Rocket 4.0 13:27:53 21° NNW 13:31:44 58° WSW 13:37:35 10° S
Helios 1A Rocket 3.5 13:28:22 10° S 13:32:12 44° WSW 13:34:27 21° NW
Cosmos 1605 Rocket 4.0 13:27:02 10° SSW 13:33:11 69° W 13:38:18 15° N
USA 307 3.7 13:34:20 14° NE 13:34:20 14° NE 13:35:32 10° ENE
USA 305 3.8 13:37:58 11° NE 13:37:58 11° NE 13:38:21 10° ENE
Cosmos 2278 3.7 13:32:07 10° SSW 13:37:50 72° WNW 13:43:31 10° NNE
AQUA 4.3 13:35:41 20° NNW 13:38:38 44° W 13:43:16 10° SSW
BREEZE M DEB (TANK) 1.5 13:38:00 23° W 13:39:10 80° N 13:41:59 10° E
Cosmos 371 Rocket 3.9 13:36:53 16° N 13:40:40 51° ENE 13:45:28 10° SSE
Cosmos 2082 Rocket 2.5 13:37:14 18° NW 13:41:30 61° SW 13:47:14 10° SSE
Cosmos 2237 4.2 13:39:58 10° SSW 13:45:47 87° WNW 13:51:33 10° NNE
Cosmos 1782 Rocket 3.9 13:45:23 19° NNW 13:48:27 58° WSW 13:52:59 10° S
Cosmos 1408 4.2 13:46:29 10° SW 13:48:40 17° W 13:49:33 15° WNW
Cosmos 2100 Rocket 4.3 13:46:11 10° S 13:52:26 70° ESE 13:58:36 10° NNE
ATLAS 2AS CENTAUR R/B 3.4 13:46:26 10° WNW 13:52:56 50° SW 13:59:49 10° SE
Cosmos 1153 Rocket 4.5 13:48:54 10° SSW 13:55:08 77° W 14:01:24 10° N
Cosmos 44 Rocket 3.2 13:52:48 18° NNW 13:56:18 81° NE 14:00:58 10° SE
Okean 2 Rocket 4.2 13:53:48 10° NNE 13:58:02 43° E 14:02:19 10° SSE
Meteor 1-11 4.4 13:52:48 10° S 13:58:44 83° ESE 14:04:31 10° NNE
Cosmos 2360 Rocket 2.8 13:53:18 10° SSW 13:59:00 63° ESE 14:04:38 10° NE
CZ-2C R/B 3.3 13:54:08 10° N 13:59:39 65° W 14:05:29 10° SSW
COBE Rocket 4.2 13:55:21 10° NNE 13:59:58 64° ESE 14:04:40 10° S
Cosmos 1953 2.9 13:57:22 18° NW 13:59:59 43° WSW 14:03:51 10° S
USA 306 2.7 14:00:04 19° NW 14:02:18 53° NNE 14:05:57 10° ESE
In-Cosmos 22 Rocket 4.3 13:57:29 10° SSW 14:03:27 87° W 14:09:16 10° N
Cosmos 1538 Rocket 4.1 13:58:12 10° SSW 14:03:42 82° WNW 14:09:06 10° NNE
ISS -2.6 14:03:50 17° NNW 14:05:50 31° NNE 14:08:55 10° E
Cosmos 2219 Rocket 3.7 14:00:44 10° SSW 14:06:04 40° SE 14:11:21 10° ENE
Cosmos 1975 Rocket 3.7 14:02:06 10° SSW 14:06:13 39° W 14:09:35 14° NNW
Cosmos 1315 Rocket 4.0 14:04:56 10° SW 14:08:21 27° W 14:10:49 15° NW
MOZ.5/SAFIR/RUBIN 5/SL-8 3.9 14:08:48 10° SSE 14:13:35 77° ENE 14:18:16 10° N
Genesis I 4.4 14:12:11 10° WSW 14:15:03 21° WNW 14:17:20 13° NNW
Cosmos 2322 Rocket 2.2 14:09:24 10° SSW 14:15:06 81° WNW 14:20:45 10° NNE
Cosmos 1633 4.3 14:15:16 10° WSW 14:16:39 12° W 14:17:41 11° WNW
USA 229 DEB 3.5 14:10:56 10° SW 14:17:46 78° NW 14:23:57 10° NNE
USA 229 3.5 14:11:00 10° SW 14:17:49 78° NW 14:24:01 10° NE
Cosmos 2333 Rocket 2.5 14:14:25 10° SSW 14:20:09 73° ESE 14:25:50 10° NE
Okean 1 Rocket 4.2 14:16:13 10° NNE 14:20:29 43° E 14:24:47 10° SSE
CZ-2C R/B 2.5 14:17:18 10° NNE 14:22:31 81° WNW 14:27:41 10° SSW
ADEOS II 3.6 14:20:35 12° NW 14:23:50 19° W 14:27:34 10° SW
Cosmos 1536 Rocket 3.6 14:20:33 10° S 14:25:08 86° W 14:29:40 10° N
Thor Agena Rocket 4.0 14:20:46 10° N 14:25:36 42° W 14:30:35 10° SSW
ATLAS 5 CENTAUR R/B 4.3 14:22:57 10° SW 14:28:46 32° SSE 14:33:36 10° E
SL-16 R/B 4.1 14:23:48 10° SSE 14:29:23 33° E 14:34:52 10° NNE
NOSS 3-1 (A) 4.0 14:24:09 10° SW 14:29:39 31° WNW 14:34:17 10° N
ATLAS CENTAUR R/B 2.6 14:31:42 10° WSW 14:35:20 25° WNW 14:38:54 10° N
Lacrosse 5 rocket 2.0 14:32:30 10° WSW 14:35:35 26° NW 14:38:44 10° N
Cosmos 2151 Rocket 3.7 14:31:20 10° NNW 14:35:52 81° W 14:40:30 10° S
SL-16 R/B 2.7 14:31:10 10° SW 14:36:28 40° WNW 14:41:43 10° N
Cosmos 1459 Rocket 4.2 14:32:19 10° SSW 14:38:43 64° W 14:45:02 10° N
BREEZE-M DEB (TANK) 2.7 14:38:30 10° WNW 14:40:14 21° NNW 14:42:32 10° NNE
DNEPR-1 R/B 3.5 14:38:50 10° NW 14:43:15 78° SW 14:47:23 10° SE
CZ-2C R/B 4.2 14:38:48 10° SSE 14:43:50 35° E 14:48:54 10° NNE
ALOS 3.5 14:40:13 10° NNW 14:44:02 25° W 14:47:55 10° SW
PAYLOAD A 4.0 14:41:44 10° N 14:46:24 54° W 14:51:06 10° SSW
USA 281 3.3 14:42:46 10° N 14:49:13 57° WNW 14:55:47 10° SSW
Cosmos 1825 4.0 14:47:34 10° SW 14:49:33 14° W 14:51:30 10° WNW
Meteor 1-4 Rocket 3.8 14:49:57 10° SW 14:52:26 20° W 14:54:54 10° NW
Cosmos 1484 Rocket 3.2 14:48:59 10° NNE 14:52:42 64° ESE 14:56:24 10° S
Envisat 3.3 14:50:05 10° N 14:55:01 48° W 15:00:01 10° SSW
Cosmos 2333 4.2 14:52:18 10° SSW 14:57:58 74° WNW 15:03:37 10° NNE
